Location: Noordwijk
(52.2400°N, 4.4500°E)
Time: 12:10:32
(UTC+00:00)

VELOX 1 - Pass Details

Date: 01 December 2022
Orbit: 621 x 635 km, 98.4° (Epoch: 29 January)

Event Time Altitude Azimuth Distance (km) Brightness Sun altitude
Exits shadow 18:59:37 27° 319° (NW) 1,202 ? -30.5°
Maximum altitude 19:00:29 29° 297° (WNW) 1,140 ? -30.7°
Drops below altitude 10° 19:04:14 10° 237° (WSW) 1,992 ? -31.2°
Sets 19:06:36 0° 227° (SW) 2,893 ? -31.6°
